Location: Unspecified
(35.6961°N, 0.0000°E)
Time: 18:40:46
(UTC+00:00)

Courier 1B Rocket - Visible Passes

Search period start: 19 May 2019 00:00
Search period end: 29 May 2019 00:00
Orbit: 920 x 1202 km, 28.2° (Epoch: 17 May)

Date Brightness Start Highest point End Pass type
(mag) Time Alt. Az. Time Alt. Az. Time Alt. Az.
19 May 5.7 19:28:06 10° WSW 19:35:26 48° S 19:42:22 10° ESE visible
19 May 5.7 21:21:50 10° W 21:28:40 39° SSW 21:29:08 39° S visible
20 May 5.7 20:20:26 10° WSW 20:27:38 45° S 20:31:46 23° SE visible
20 May 6.7 22:14:43 10° WSW 22:18:07 22° SW 22:18:07 22° SW visible
21 May 5.8 19:19:07 10° WSW 19:26:31 48° S 19:33:34 10° ESE visible
21 May 6.0 21:13:04 10° W 21:19:42 34° SSW 21:20:44 32° S visible
22 May 5.9 20:11:35 10° W 20:18:41 40° SSW 20:23:19 20° SE visible
22 May 6.9 22:06:23 10° WSW 22:09:41 18° SW 22:09:41 18° SW visible
23 May 6.3 21:04:28 10° WSW 21:10:39 27° SSW 21:12:16 25° S visible
24 May 6.2 20:02:49 10° W 20:09:40 34° SSW 20:14:52 15° SE visible
24 May 7.1 21:58:38 10° WSW 22:01:13 14° SW 22:01:13 14° SW visible
25 May 6.7 20:56:07 10° WSW 21:01:34 21° SSW 21:03:50 18° S visible
26 May 6.6 19:54:14 10° WSW 20:00:36 28° SSW 20:06:27 11° SSE visible
27 May 7.1 20:48:21 10° WSW 20:52:25 15° SSW 20:55:27 12° S visible
28 May 6.9 19:45:55 10° WSW 19:51:29 21° SSW 19:56:58 10° SSE visible
